Location: Home
(42.5358°N, 72.7383°W)
Time: 08:41:09
(UTC-04:00)

Kosmos-337 - Pass Details

Date: 05 July 2022
Orbit: 1467 x 1552 km, 74.0° (Epoch: 16 August)

Event Time Altitude Azimuth Distance (km) Brightness Sun altitude
Rises 01:30:42 0° 340° (NNW) 4,733 ? -24.2°
Reaches altitude 10° 01:33:42 10° 342° (NNW) 3,744 ? -24.1°
Maximum altitude 01:42:54 75° 68° (ENE) 1,589 ? -23.8°
Enters shadow 01:48:54 25° 150° (SSE) 2,726 ? -23.5°
